Weather in Muzhitino

Russia / Kaluga Oblast     53°45′32″N   34°40′23″E
temp.,
°C
wind,
m/s
gust,
m/s
humid.,
%
clouds,
%
prec.,
mm/h
press.,
hPa
HPBL,
m
19 april, mon
mon1900:00+4nne389379 0.0 1020251
03:00+5nne379571 0.0 1020303
06:00+5nne489494 0.0 1019462
09:00+7ne5887100 0.0 1019579
12:00+8ene4780100 0.0 1019848
15:00+7ne6986100 0.1 1019735
18:00+4ene41294100 1.9 1020810
21:00+5ene5997100 2.1 10191021
20 april, tue
tue2000:00+5ne4997100 0.2 1018695
03:00+4ne51096100 0.3 1017517
06:00+4ne5897100 2.7 1015577
09:00+3nne3597100 4.1 1015212
12:00+5ene41095100 0.5 1014614
15:00+7ene5887100 0.5 1012861
18:00+4ne5997100 0.0 1011558
21:00+2nne51097100 0.1 1009470
21 april, wed
wed2100:00+2n51097100 0.1 1006495
03:00+1nnw4997100 1.6 1004382
06:00+2wnw51097100 0.3 1004512
09:00+3wnw5991100 0.3 1005891
12:00+6w5975100 0.1 10071324
15:00+8wsw5870100 0.3 10081183
18:00+8wsw487016 0.2 1009758
21:00+6ssw41081100 0.3 1011496
22 april, thu
thu2200:00+6s3987100 0.6 1011404
03:00+5ssw31091100 1.2 1012275
06:00+5s389480 0.1 1013233
09:00+9ssw498119 0.6 1014662
12:00+13ssw586246 0.6 10141397
15:00+14ssw586033 2.5 10141500
18:00+13ssw596795 1.5 1015749
21:00+9s3990100 4.6 1016223
23 april, fri
fri2300:00+9s389278 1.8 1016206
03:00+7sse3109462 1.8 1016222
06:00+6sse411926 0.0 1015263
09:00+11s51276100 0.1 1014623
12:00+16s7115931 1.0 10121876
15:00+16s7115395 2.3 10102328
18:00+8wnw61094100 3.1 1012440
21:00+5w3689100 7.4 1014462